Gulf Shores, AL

3:46 AM CDT on August 25, 2016 (GMT -0500)
Edwards

Weather History for KJKA - October, 2012

Change the Weather History Date:

Friday, October 5, 2012

  Actual Average (KPNS) Record (KPNS)
Temperature  
Mean Temperature 73 °F 73 °F  
Max Temperature 82 °F 82 °F 95 °F (1951)
Min Temperature 64 °F 64 °F 49 °F (1987)
Degree Days  
Heating Degree Days 0 0  
Month to date heating degree days 0  
Since 1 July heating degree days 1  
Cooling Degree Days 8 8  
Month to date cooling degree days 44  
Year to date cooling degree days 2414  
Growing Degree Days 23 (Base 50)    
Moisture  
Dew Point 67 °F    
Average Humidity 86    
Maximum Humidity 100    
Minimum Humidity 66    
Precipitation  
Precipitation 0.00 in 0.18 in 15.29 in (1934)
Month to date precipitation 0.87  
Year to date precipitation 51.62  
Sea Level Pressure  
Sea Level Pressure 30.08 in    
Wind  
Wind Speed 2 mph (ENE)    
Max Wind Speed 9 mph    
Max Gust Speed -    
Visibility 8 miles    
Events Fog , Thunderstorm    
T = Trace of Precipitation, MM = Missing Value Source: NWS Daily Summary

Daily Weather History Graph

Daily Weather History Graph

Search for Another Location

Airport or City:

Trip Planner

Search our weather history database for the weather conditions in past years. The results will help you decide how hot, cold, wet, or windy it might be!

Date:

Astronomy

Oct. 05, 2012 Rise Set
Actual Time 6:46 AM CDT 6:30 PM CDT
Civil Twilight 6:22 AM CDT 6:54 PM CDT
Nautical Twilight 5:55 AM CDT 7:22 PM CDT
Astronomical Twilight 5:27 AM CDT 7:50 PM CDT
Moon 10:13 PM CDT (10/5) 11:34 AM CDT (10/5)
Length of Visible Light 12h 31m
Length of Day
11h 43m
Waning Gibbous, 74% of the Moon is Illuminated
Oct 5
Waning Gibbous
Oct 8
Last Quarter
Oct 15
New
Oct 21
First Quarter
Oct 29
Full

Hourly Weather History & Observations

Time (CDT) Temp. Heat Index Dew Point Humidity Pressure Visibility Wind Dir Wind Speed Gust Speed Precip Events Conditions
12:15 AM 66.2 °F - 64.4 °F 94% 30.16 in 10.0 mi Calm Calm - N/A   Unknown
12:35 AM 68.0 °F - 64.4 °F 88% 30.15 in 10.0 mi North 3.5 mph - N/A   Unknown
12:55 AM 68.0 °F - 64.4 °F 88% 30.15 in 7.0 mi Calm Calm - N/A   Unknown
1:15 AM 66.2 °F - 64.4 °F 94% 30.14 in 10.0 mi Calm Calm - N/A   Unknown
1:35 AM 66.2 °F - 64.4 °F 94% 30.14 in 10.0 mi Calm Calm - N/A   Unknown
1:55 AM 68.0 °F - 64.4 °F 88% 30.14 in 10.0 mi Calm Calm - N/A   Unknown
2:15 AM 66.2 °F - 62.6 °F 88% 30.13 in 10.0 mi Calm Calm - N/A   Unknown
2:35 AM 66.2 °F - 62.6 °F 88% 30.13 in 10.0 mi Calm Calm - N/A   Unknown
2:55 AM 64.4 °F - 62.6 °F 94% 30.12 in 10.0 mi Calm Calm - N/A   Unknown
3:15 AM 64.4 °F - 62.6 °F 94% 30.12 in 10.0 mi North 3.5 mph - N/A   Unknown
3:35 AM 64.4 °F - 62.6 °F 94% 30.12 in 10.0 mi North 3.5 mph - N/A   Unknown
3:55 AM 64.4 °F - 62.6 °F 94% 30.12 in 10.0 mi Calm Calm - N/A   Unknown
4:15 AM 64.4 °F - 62.6 °F 94% 30.12 in 10.0 mi Calm Calm - N/A   Unknown
4:35 AM 64.4 °F - 62.6 °F 94% 30.12 in 10.0 mi Calm Calm - N/A   Unknown
4:55 AM 64.4 °F - 62.6 °F 94% 30.12 in 10.0 mi Calm Calm - N/A   Unknown
5:15 AM 64.4 °F - 62.6 °F 94% 30.12 in 10.0 mi North 3.5 mph - N/A   Unknown
5:35 AM 64.4 °F - 62.6 °F 94% 30.12 in 10.0 mi North 3.5 mph - N/A   Unknown
5:55 AM 64.4 °F - 62.6 °F 94% 30.12 in 10.0 mi Calm Calm - N/A   Unknown
6:15 AM 64.4 °F - 62.6 °F 94% 30.13 in 10.0 mi Calm Calm - N/A Thunderstorm Unknown
6:35 AM 64.4 °F - 62.6 °F 94% 30.13 in 7.0 mi North 3.5 mph - N/A   Unknown
6:55 AM 64.4 °F - 62.6 °F 94% 30.13 in 7.0 mi Calm Calm - N/A   Unknown
7:15 AM 64.4 °F - 62.6 °F 94% 30.13 in 5.0 mi Calm Calm - N/A   Mist
7:35 AM 64.4 °F - 62.6 °F 94% 30.12 in 5.0 mi North 5.8 mph - N/A Thunderstorm Mist
7:55 AM 64.4 °F - 64.4 °F 100% 30.12 in 7.0 mi North 6.9 mph - N/A   Unknown
8:15 AM 66.2 °F - 64.4 °F 94% 30.13 in 7.0 mi North 5.8 mph - N/A   Unknown
8:35 AM 68.0 °F - 64.4 °F 88% 30.13 in 10.0 mi NNE 5.8 mph - N/A   Unknown
8:55 AM 69.8 °F - 68.0 °F 94% 30.14 in 10.0 mi NE 4.6 mph - N/A   Unknown
9:15 AM 71.6 °F - 68.0 °F 88% 30.14 in 10.0 mi NE 4.6 mph - N/A   Unknown
9:35 AM 71.6 °F - 68.0 °F 88% 30.14 in 10.0 mi NE 6.9 mph - N/A   Unknown
9:55 AM 73.4 °F - 68.0 °F 83% 30.14 in 10.0 mi NE 5.8 mph - N/A   Unknown
10:15 AM 73.4 °F - 68.0 °F 83% 30.13 in 10.0 mi NE 5.8 mph - N/A   Unknown
10:35 AM 77.0 °F - 69.8 °F 78% 30.14 in 10.0 mi ENE 5.8 mph - N/A   Unknown
10:55 AM 77.0 °F - 69.8 °F 78% 30.14 in 10.0 mi ENE 6.9 mph - N/A   Unknown
11:15 AM 78.8 °F - 69.8 °F 74% 30.14 in 10.0 mi East 5.8 mph - N/A   Unknown
11:35 AM 78.8 °F - 69.8 °F 74% 30.12 in 10.0 mi East 6.9 mph - N/A   Unknown
11:55 AM 80.6 °F 83.9 °F 69.8 °F 70% 30.12 in 10.0 mi ESE 6.9 mph - N/A   Unknown
12:15 PM 80.6 °F 83.9 °F 69.8 °F 70% 30.11 in 10.0 mi East 9.2 mph - N/A   Unknown
12:35 PM 80.6 °F 83.9 °F 69.8 °F 70% 30.10 in 10.0 mi ESE 8.1 mph - N/A   Unknown
12:55 PM 80.6 °F 84.6 °F 71.6 °F 74% 30.09 in 10.0 mi East 9.2 mph - N/A   Unknown
1:35 PM 82.4 °F 86.3 °F 69.8 °F 66% 30.07 in 10.0 mi East 5.8 mph - N/A   Unknown
1:55 PM 82.4 °F 86.3 °F 69.8 °F 66% 30.06 in 10.0 mi East 4.6 mph - N/A   Unknown
2:15 PM 82.4 °F 86.3 °F 69.8 °F 66% 30.05 in 10.0 mi ESE 6.9 mph - N/A   Unknown
2:35 PM 82.4 °F 86.3 °F 69.8 °F 66% 30.03 in - Calm Calm - N/A   Unknown
2:55 PM 82.4 °F 86.3 °F 69.8 °F 66% 30.02 in 10.0 mi ESE 6.9 mph - N/A   Unknown
3:15 PM 82.4 °F 87.2 °F 71.6 °F 70% 30.02 in 10.0 mi SE 8.1 mph - N/A   Unknown
3:35 PM 82.4 °F 87.2 °F 71.6 °F 70% 30.01 in 10.0 mi SSE 8.1 mph - N/A   Unknown
3:55 PM 82.4 °F 86.3 °F 69.8 °F 66% 30.01 in 10.0 mi SE 8.1 mph - N/A   Unknown
4:15 PM 80.6 °F 84.6 °F 71.6 °F 74% 30.01 in 10.0 mi SSE 8.1 mph - N/A   Unknown
4:35 PM 80.6 °F 83.9 °F 69.8 °F 70% 30.01 in - SSE 8.1 mph - N/A   Unknown
4:55 PM 80.6 °F 83.9 °F 69.8 °F 70% 30.01 in 10.0 mi SE 5.8 mph - N/A   Unknown
5:15 PM 78.8 °F - 71.6 °F 78% 30.01 in 10.0 mi SSE 5.8 mph - N/A   Unknown
5:35 PM 78.8 °F - 71.6 °F 78% 30.01 in - South 5.8 mph - N/A   Unknown
6:15 PM 77.0 °F - 71.6 °F 83% 30.01 in 10.0 mi South 3.5 mph - N/A   Unknown
6:35 PM 77.0 °F - 71.6 °F 83% 30.00 in 10.0 mi Calm Calm - N/A   Unknown
6:55 PM 73.4 °F - 71.6 °F 94% 30.00 in 10.0 mi Calm Calm - N/A   Unknown
7:15 PM 73.4 °F - 71.6 °F 94% 30.01 in 10.0 mi Calm Calm - N/A   Unknown
7:35 PM 71.6 °F - 69.8 °F 94% 30.01 in 7.0 mi Calm Calm - N/A   Unknown
7:55 PM 71.6 °F - 69.8 °F 94% 30.01 in 5.0 mi Calm Calm - N/A   Mist
8:15 PM 71.6 °F - 69.8 °F 94% 30.01 in 0.8 mi Calm Calm - N/A   Mist
8:35 PM 69.8 °F - 69.8 °F 100% 30.02 in 10.0 mi Calm Calm - N/A   Unknown
8:55 PM 69.8 °F - 69.8 °F 100% 30.02 in 2.0 mi Calm Calm - N/A   Mist
9:15 PM 69.8 °F - 68.0 °F 94% 30.02 in 4.0 mi Calm Calm - N/A   Mist
9:35 PM 69.8 °F - 68.0 °F 94% 30.03 in 1.8 mi Calm Calm - N/A   Mist
9:55 PM 69.8 °F - 68.0 °F 94% 30.03 in 0.5 mi Calm Calm - N/A Fog Fog
10:35 PM 68.0 °F - 68.0 °F 100% 30.03 in 0.5 mi Calm Calm - N/A Fog Fog
10:55 PM 68.0 °F - 68.0 °F 100% 30.04 in 1.0 mi Calm Calm - N/A   Mist
11:15 PM 69.8 °F - 68.0 °F 94% 30.04 in 0.8 mi Calm Calm - N/A   Mist
11:35 PM 69.8 °F - 68.0 °F 94% 30.03 in 3.0 mi Calm Calm - N/A   Mist
11:55 PM 68.0 °F - 68.0 °F 100% 30.03 in 3.0 mi Calm Calm - N/A   Mist